Weather History for FAUP - February, 2013

Change the Weather History Date:

Saturday, February 23, 2013

  Actual Average Record
Temperature  
Mean Temperature 78 °F -  
Max Temperature 97 °F 90 °F 105 °F (2007)
Min Temperature 59 °F 63 °F 32 °F (2004)
Cooling Degree Days 13    
Growing Degree Days 28 (Base 50)    
Moisture  
Dew Point 38 °F    
Average Humidity 27    
Maximum Humidity 63    
Minimum Humidity 4    
Precipitation  
Precipitation 0.00 in 0.05 in - ()
Sea Level Pressure  
Sea Level Pressure 30.02 in    
Wind  
Wind Speed 5 mph ()    
Max Wind Speed 13 mph    
Max Gust Speed -    
Averages and records for this station are not official NWS values.
T = Trace of Precipitation, MM = Missing Value Source: Averaged Metar Reports

Daily Weather History Graph

Daily Weather History Graph

Search for Another Location

Airport or City:

Trip Planner

Search our weather history database for the weather conditions in past years. The results will help you decide how hot, cold, wet, or windy it might be!

Date:

Astronomy

Feb. 23, 2013 Rise Set
Actual Time 6:23 AM SAST 7:13 PM SAST
Civil Twilight 5:58 AM SAST 7:37 PM SAST
Nautical Twilight 5:30 AM SAST 8:05 PM SAST
Astronomical Twilight 5:01 AM SAST 8:34 PM SAST
Moon 5:30 PM SAST (2/23) 4:00 AM SAST (2/23)
Length of Visible Light 13h 38m
Length of Day
12h 50m
Waxing Gibbous, 94% of the Moon is Illuminated
Feb 23
Waxing Gibbous
Feb 25
Full
Mar 4
Last Quarter
Mar 11
New
Mar 19
First Quarter

Hourly Weather History & Observations

Time (SAST) Temp. Dew Point Humidity Pressure Visibility Wind Dir Wind Speed Gust Speed Precip Events Conditions
12:00 AM 71.6 °F 30.2 °F 22% 29.98 in - SSW 4.6 mph - N/A   Unknown
1:00 AM 69.8 °F 32.0 °F 25% 30.01 in - SSW 5.8 mph - N/A   Unknown
2:00 AM 70 °F 39 °F 21%  in - SSW 3.5 mph - -  
2:00 AM 69.8 °F 39.2 °F 33% 29.98 in - SSW 3.5 mph - N/A   Unknown
3:00 AM 66.2 °F 37.4 °F 35% 29.98 in - SW 3.5 mph - N/A   Unknown
4:00 AM 62.6 °F 46.4 °F 55% 30.01 in - SW 4.6 mph - N/A   Unknown
5:00 AM 64 °F 51 °F 52%  in 25 mi SW 3.5 mph - -  
5:00 AM 62.6 °F 50.0 °F 63% 30.01 in - SW 3.5 mph - N/A   Clear
6:00 AM 62.6 °F 50.0 °F 63% 30.01 in - SW 3.5 mph - N/A   Clear
7:00 AM 62.6 °F 48.2 °F 59% 30.04 in - WNW 4.6 mph - N/A   Clear
7:05 AM 66.2 °F 50.0 °F 56% 30.04 in - West 3.5 mph - N/A   Clear
7:35 AM 69.8 °F 51.8 °F 53% 30.04 in - SW 3.5 mph - N/A   Clear
8:00 AM 71 °F 52 °F 40%  in 25 mi South 3.5 mph - -  
8:00 AM 69.8 °F 50.0 °F 49% 30.06 in - South 3.5 mph - N/A   Clear
9:00 AM 73.4 °F 51.8 °F 47% 30.06 in - South 8.1 mph - N/A   Clear
9:43 AM 78.8 °F 50.0 °F 36% 30.06 in - South 8.1 mph - N/A   Clear
10:00 AM 77.0 °F 48.2 °F 36% 30.06 in - South 6.9 mph - N/A   Clear
10:34 AM 82.4 °F 46.4 °F 28% 30.06 in - South 6.9 mph - N/A   Clear
11:00 AM 84 °F 44 °F 15%  in 25 mi SSW 6.9 mph - -  
11:00 AM 82.4 °F 42.8 °F 25% 30.06 in - SSW 6.9 mph - N/A   Clear
11:23 AM 86.0 °F 42.8 °F 22% 30.06 in - South 5.8 mph - N/A   Clear
12:00 PM 86.0 °F 37.4 °F 18% 30.04 in - SSW 8.1 mph - N/A   Clear
12:31 PM 89.6 °F 39.2 °F 17% 30.01 in - SSW 8.1 mph - N/A   Clear
1:00 PM 91.4 °F 41.0 °F 17% 30.01 in - SSW 9.2 mph - N/A   Clear
2:00 PM 94 °F 34 °F 6%  in 25 mi SSW 11.5 mph - -  
2:00 PM 93.2 °F 33.8 °F 12% 30.01 in - SSW 10.4 mph - N/A   Clear
3:00 PM 95.0 °F 23.0 °F 8% 30.01 in - SSW 12.7 mph - N/A   Clear
4:00 PM 95.0 °F 23.0 °F 8% 29.98 in - SW 12.7 mph - N/A   Clear
5:00 PM 97 °F 23 °F 4%  in 25 mi SSW 11.5 mph - -  
5:00 PM 95.0 °F 24.8 °F 8% 29.98 in - SSW 11.5 mph - N/A   Clear
6:00 PM 95.0 °F 26.6 °F 9% 29.95 in - SSW 12.7 mph - N/A   Clear
7:00 PM 91.4 °F 26.6 °F 10% 29.98 in - SW 9.2 mph - N/A   Clear
8:00 PM 85 °F 27 °F 6%  in 25 mi SW 5.8 mph - -  
8:00 PM 84.2 °F 28.4 °F 13% 29.98 in - SW 4.6 mph - N/A   Clear
9:00 PM 78.8 °F 26.6 °F 15% 29.98 in - WSW 4.6 mph - N/A   Unknown
10:00 PM 77.0 °F 28.4 °F 17% 30.01 in - WSW 4.6 mph - N/A   Unknown
11:00 PM 75 °F 28 °F 9%  in - WSW 3.5 mph - -  
11:00 PM 75.2 °F 28.4 °F 18% 30.01 in - WSW 3.5 mph - N/A   Unknown